РПИ Якутск

РЕГИОН

Якутия — королева холода. Период с декабря по февраль, пожалуй, наиболее интересный для инструментальных полётов.

Главная авиационная гавань региона — международный аэропорт Якутск — самый холодный в мире, минимальная температура может падать ниже -60 градусов по Цельсию. В реальном мире это единственный международный аэропорт в регионе.

8 октября — день рождения авиации Якутии (1925г.).

ВИРТУАЛЬНЫЕ ПОЛЁТЫ

РПИ Якутск — наименее популярный среди всех регионов Российской Федерации.

96% всех полётов — внутренние, и только 4% — международные.

Порядка 65-70% всех полётов выполняются через международный аэропорт Якутск.

Рекорд 76 ВС/день установлен 14 октября 2023 года (событие «Cross VATRUS»).

Ошибки в планах полёта вылетающих ВС (2023г.):

1% полётов совершаются с неверно указанным кодом воздушного судна;

7% полётов совершаются с неверно указанным эшелоном полёта.

ВИРТУАЛЬНОЕ ОВД

Диспетчерский состав РегЦ Якутск предоставляет обслуживание воздушного движения на русском и английском языках.

Наш девиз: предсказуемость и контроль.

Сквоки (коды ВОРЛ), район применения ICAO EUR-I:

Чульман 3240-3244

Мирный 0510-0514

Якутск 0501-0507, 0515-0527, 3220-3237, 3245-3257

Лого Якутск
Руководство

Sergey Balandin*

Куратор

Alexander Vasiliev

студент

Nikita Zikeev

Организатор мероприятий (флайинов)
Инструкторы РПИ
Ivan Aksenenko (Instructor)
Sergey Balandin (Senior Instructor)
Входит в состав
Восточная Россия

Диспетчеры РПИ

Диспетчер Рейтинг Допуски *
Ashot Hakobyan Controller UEEE_CTR
Lihan Bao Controller UEEE_CTR
Maxim Osmolovskiy Instructor UEEE_CTR
Sergey Balandin Senior Instructor UEEE_CTR
Alexander Vasiliev Student UEEE_GND
Daniel Cherednichenko Student 2 UEEE_TWR
Ivan Pivovarov Student 2 UEEE_GND
Maxim Korobko Senior Student UEEE_APP
Nikita Brynkov Student 2 UEEE_TWR
Timur Sorov Student 2 UEEE_TWR!!!

Аэропорты РПИ

ICAO Город Название Погода
UERL Ленск Ленск
UERR Мирный Мирный UERR 162200Z VRB01MPS CAVOK 08/05 Q1006 R25/CLRD60 NOSIG RMK QFE723/0965
UELL Нерюнгри Чульман
UEST Тикси Тикси
UERP Удачный Полярный UERP 162200Z 09002MPS CAVOK 08/01 Q1008 R35/090060 NOSIG RMK QFE712
UESS Черский Черский
UEEE Якутск Якутск UEEE 162200Z 12001MPS 9999 SCT050CB 16/08 Q1004 R23/09//59 NOSIG RMK QFE744
UEBB Батагай Батагай
UEMU Усть-Мая Усть-Мая